RYR737M LFBE-EGPH

Flight info

Callsign RYR737M
Flight time 1h 56m
Altitude 38000
Route VELIN DCT UVELI DCT CNA DCT TUPAR UM184 EKRAS UN867 VASUX DCT TNT UN57 POL UN601 RIBEL DCT INPIP
Aircraft B738/M-SDE3FGILRWY/SB1

Departure

Time 2026-04-26 11:43
Airport Bergerac Dordogne-Périgord airport (LFBE)

Arrival

Time 2026-04-26 13:39
Airport Edinburgh Airport (EGPH)
Time Latitude Longitude Altitude Speed Heading
2026-04-26 11:24 44.82268 0.51624 181 ft 0 kts 308°
2026-04-26 11:37 44.82269 0.51622 181 ft 0 kts 308°
2026-04-26 11:37 44.82280 0.51604 181 ft 2 kts 317°
2026-04-26 11:37 44.82301 0.51611 181 ft 3 kts 50°
2026-04-26 11:38 44.82303 0.51660 181 ft 6 kts 94°
2026-04-26 11:38 44.82297 0.51776 180 ft 17 kts 95°
2026-04-26 11:38 44.82288 0.51953 180 ft 15 kts 95°
2026-04-26 11:38 44.82346 0.52044 180 ft 15 kts
2026-04-26 11:39 44.82441 0.52088 179 ft 15 kts 75°
2026-04-26 11:39 44.82433 0.52250 178 ft 19 kts 95°
2026-04-26 11:39 44.82422 0.52445 176 ft 20 kts 95°
2026-04-26 11:39 44.82412 0.52655 175 ft 22 kts 94°
2026-04-26 11:40 44.82400 0.52877 173 ft 23 kts 94°
2026-04-26 11:40 44.82387 0.53103 173 ft 15 kts 94°
2026-04-26 11:40 44.82410 0.53210 173 ft 6 kts 66°
2026-04-26 11:40 44.82392 0.53245 173 ft 5 kts 192°
2026-04-26 11:41 44.82381 0.53204 173 ft 0 kts 275°
2026-04-26 11:42 44.82552 0.50160 685 ft 173 kts 276°
2026-04-26 11:43 44.82665 0.48527 1654 ft 171 kts 277°
2026-04-26 11:43 44.82755 0.46888 2315 ft 177 kts 276°
2026-04-26 11:43 44.82843 0.45093 2835 ft 190 kts 276°
2026-04-26 11:43 44.82943 0.43151 3338 ft 208 kts 276°
2026-04-26 11:44 44.83100 0.41079 3906 ft 222 kts 286°
2026-04-26 11:44 44.83877 0.39166 4395 ft 237 kts 320°
2026-04-26 11:44 44.85299 0.37864 4904 ft 254 kts 332°
2026-04-26 11:44 44.86726 0.36283 4948 ft 271 kts 313°
2026-04-26 11:45 44.87891 0.34122 5779 ft 277 kts 306°
2026-04-26 11:45 44.88981 0.31918 6710 ft 280 kts 306°
2026-04-26 11:45 44.90128 0.29710 7613 ft 283 kts 308°
2026-04-26 11:45 44.91337 0.27494 8480 ft 287 kts 309°
2026-04-26 11:46 44.92580 0.25275 9316 ft 292 kts 309°
2026-04-26 11:46 44.93851 0.23019 10151 ft 296 kts 309°
2026-04-26 11:46 44.95116 0.20764 10993 ft 299 kts 309°
2026-04-26 11:46 44.96416 0.18441 11814 ft 303 kts 309°
2026-04-26 11:47 44.97756 0.16154 12594 ft 306 kts 315°
2026-04-26 11:47 44.99379 0.14277 13359 ft 307 kts 330°
2026-04-26 11:47 45.01278 0.12867 14167 ft 308 kts 336°
2026-04-26 11:47 45.03218 0.11620 14920 ft 310 kts 336°
2026-04-26 11:48 45.05210 0.10347 15663 ft 313 kts 336°
2026-04-26 11:48 45.07191 0.09071 16402 ft 315 kts 336°
2026-04-26 11:48 45.09173 0.07770 17090 ft 318 kts 336°
2026-04-26 11:48 45.11177 0.06432 17796 ft 320 kts 336°
2026-04-26 11:49 45.13206 0.05061 18489 ft 323 kts 336°
2026-04-26 11:49 45.15244 0.03677 19150 ft 326 kts 335°
2026-04-26 11:49 45.17278 0.02292 19811 ft 328 kts 335°
2026-04-26 11:49 45.19349 0.00882 20475 ft 330 kts 335°
2026-04-26 11:50 45.21428 -0.00535 21086 ft 333 kts 335°
2026-04-26 11:50 45.23518 -0.01960 21691 ft 336 kts 335°
2026-04-26 11:50 45.25617 -0.03392 22310 ft 337 kts 335°
2026-04-26 11:50 45.27732 -0.04837 22870 ft 340 kts 335°
2026-04-26 11:51 45.29870 -0.06298 23418 ft 343 kts 335°
2026-04-26 11:51 45.32045 -0.07786 24010 ft 345 kts 335°
2026-04-26 11:51 45.34195 -0.09258 24505 ft 349 kts 335°
2026-04-26 11:51 45.36397 -0.10767 25030 ft 351 kts 335°
2026-04-26 11:52 45.38600 -0.12278 25559 ft 353 kts 335°
2026-04-26 11:52 45.40076 -0.13291 25841 ft 356 kts 335°
2026-04-26 11:52 45.43054 -0.15337 26470 ft 359 kts 335°
2026-04-26 11:52 45.45316 -0.16892 26952 ft 361 kts 334°
2026-04-26 11:53 45.47590 -0.18457 27406 ft 364 kts 334°
2026-04-26 11:53 45.49854 -0.20017 27879 ft 365 kts 334°
2026-04-26 11:53 45.52156 -0.21604 28301 ft 368 kts 334°
2026-04-26 11:54 45.56782 -0.24797 29140 ft 373 kts 334°
2026-04-26 11:54 45.59138 -0.26426 29555 ft 375 kts 334°
2026-04-26 11:54 45.61460 -0.28033 29969 ft 376 kts 334°
2026-04-26 11:54 45.63853 -0.29687 30308 ft 380 kts 334°
2026-04-26 11:55 45.66238 -0.31224 30679 ft 382 kts 338°
2026-04-26 11:55 45.68754 -0.32559 31108 ft 382 kts 341°
2026-04-26 11:55 45.71276 -0.33737 31407 ft 386 kts 342°
2026-04-26 11:55 45.73857 -0.34876 31809 ft 387 kts 343°
2026-04-26 11:56 45.76453 -0.36006 32144 ft 389 kts 343°
2026-04-26 11:56 45.79067 -0.37147 32575 ft 388 kts 342°
2026-04-26 11:56 45.81671 -0.38294 32841 ft 392 kts 342°
2026-04-26 11:56 45.84315 -0.39469 33252 ft 392 kts 342°
2026-04-26 11:57 45.86922 -0.40636 33589 ft 393 kts 342°
2026-04-26 11:57 45.89553 -0.41820 33844 ft 396 kts 342°
2026-04-26 11:57 45.92213 -0.43022 34256 ft 395 kts 342°
2026-04-26 11:57 45.94852 -0.44218 34491 ft 399 kts 341°
2026-04-26 11:58 45.97518 -0.45430 34815 ft 399 kts 341°
2026-04-26 11:58 46.00165 -0.46635 35008 ft 402 kts 341°
2026-04-26 11:58 46.02837 -0.47853 35233 ft 404 kts 341°
2026-04-26 11:58 46.05499 -0.49067 35443 ft 406 kts 341°
2026-04-26 11:59 46.08233 -0.50315 35691 ft 408 kts 341°
2026-04-26 11:59 46.10925 -0.51545 35975 ft 408 kts 341°
2026-04-26 11:59 46.13634 -0.52784 36276 ft 407 kts 341°
2026-04-26 11:59 46.16331 -0.54019 36641 ft 404 kts 341°
2026-04-26 12:00 46.19016 -0.55249 36959 ft 405 kts 341°
2026-04-26 12:00 46.21721 -0.56491 37253 ft 405 kts 341°
2026-04-26 12:00 46.24408 -0.57726 37610 ft 405 kts 341°
2026-04-26 12:00 46.27075 -0.58953 37910 ft 405 kts 341°
2026-04-26 12:01 46.29744 -0.60182 38180 ft 405 kts 341°
2026-04-26 12:01 46.35143 -0.62673 38182 ft 406 kts 341°
2026-04-26 12:02 46.40440 -0.65259 38184 ft 402 kts 336°
2026-04-26 12:02 46.45286 -0.69269 38194 ft 403 kts 321°
2026-04-26 12:03 46.49587 -0.74505 38194 ft 401 kts 317°
2026-04-26 12:03 46.53708 -0.79930 38197 ft 401 kts 316°
2026-04-26 12:04 46.57824 -0.85353 38200 ft 401 kts 317°
2026-04-26 12:04 46.61977 -0.90758 38197 ft 402 kts 317°
2026-04-26 12:05 46.66154 -0.96149 38200 ft 401 kts 317°
2026-04-26 12:05 46.70309 -1.01509 38200 ft 401 kts 317°
2026-04-26 12:06 46.74498 -1.06923 38200 ft 401 kts 317°
2026-04-26 12:06 46.78652 -1.12305 38202 ft 401 kts 317°
2026-04-26 12:07 46.82817 -1.17712 38203 ft 402 kts 317°
2026-04-26 12:07 46.86967 -1.23112 38204 ft 402 kts 317°
2026-04-26 12:08 46.91150 -1.28568 38198 ft 402 kts 317°
2026-04-26 12:08 46.95509 -1.33687 38192 ft 406 kts 327°
2026-04-26 12:08 46.98064 -1.35490 38198 ft 410 kts 339°
2026-04-26 12:09 47.00817 -1.36518 38200 ft 413 kts 349°
2026-04-26 12:09 47.06565 -1.37271 38200 ft 416 kts 354°
2026-04-26 12:10 47.12372 -1.37601 38202 ft 417 kts 355°
2026-04-26 12:10 47.18145 -1.37892 38200 ft 415 kts 355°
2026-04-26 12:11 47.23910 -1.38214 38202 ft 416 kts 355°
2026-04-26 12:11 47.29694 -1.38563 38204 ft 416 kts 355°
2026-04-26 12:12 47.35455 -1.38922 38203 ft 415 kts 355°
2026-04-26 12:12 47.41228 -1.39287 38206 ft 417 kts 354°
2026-04-26 12:13 47.47035 -1.39658 38206 ft 417 kts 354°
2026-04-26 12:13 47.52811 -1.40029 38206 ft 417 kts 354°
2026-04-26 12:14 47.58623 -1.40400 38211 ft 417 kts 354°
2026-04-26 12:14 47.64413 -1.40772 38209 ft 417 kts 354°
2026-04-26 12:15 47.70220 -1.41146 38206 ft 417 kts 354°
2026-04-26 12:15 47.76024 -1.41547 38208 ft 418 kts 354°
2026-04-26 12:16 47.81830 -1.41990 38206 ft 419 kts 354°
2026-04-26 12:16 47.87652 -1.42437 38207 ft 419 kts 354°
2026-04-26 12:17 47.93470 -1.42881 38209 ft 420 kts 354°
2026-04-26 12:17 47.99331 -1.43327 38201 ft 419 kts 354°
2026-04-26 12:18 48.05120 -1.43763 38197 ft 419 kts 354°
2026-04-26 12:18 48.10887 -1.44178 38200 ft 420 kts 354°
2026-04-26 12:19 48.16732 -1.44593 38202 ft 420 kts 354°
2026-04-26 12:19 48.22573 -1.45008 38203 ft 420 kts 354°
2026-04-26 12:20 48.28373 -1.45424 38202 ft 419 kts 354°
2026-04-26 12:20 48.34198 -1.45844 38202 ft 419 kts 354°
2026-04-26 12:21 48.40000 -1.46264 38201 ft 419 kts 354°
2026-04-26 12:21 48.45821 -1.46687 38206 ft 419 kts 354°
2026-04-26 12:22 48.51638 -1.47111 38203 ft 419 kts 354°
2026-04-26 12:22 48.57467 -1.47537 38206 ft 419 kts 354°
2026-04-26 12:23 48.63280 -1.47962 38211 ft 419 kts 354°
2026-04-26 12:23 48.69115 -1.48391 38226 ft 419 kts 354°
2026-04-26 12:24 48.74957 -1.48821 38231 ft 419 kts 354°
2026-04-26 12:24 48.80736 -1.49246 38225 ft 419 kts 354°
2026-04-26 12:25 48.89492 -1.49867 38231 ft 419 kts 356°
2026-04-26 12:25 48.95343 -1.49559 38233 ft 422 kts
2026-04-26 12:26 49.01165 -1.48806 38235 ft 422 kts
2026-04-26 12:26 49.07034 -1.48014 38242 ft 423 kts
2026-04-26 12:27 49.12860 -1.47267 38239 ft 422 kts
2026-04-26 12:27 49.18742 -1.46541 38241 ft 423 kts
2026-04-26 12:28 49.24588 -1.45835 38237 ft 422 kts
2026-04-26 12:28 49.30388 -1.45140 38245 ft 421 kts
2026-04-26 12:29 49.36265 -1.44435 38248 ft 421 kts
2026-04-26 12:30 49.45018 -1.43386 38248 ft 423 kts
2026-04-26 12:30 49.50901 -1.42677 38254 ft 421 kts
2026-04-26 12:31 49.59612 -1.41627 38254 ft 421 kts
2026-04-26 12:31 49.65496 -1.41045 38252 ft 421 kts
2026-04-26 12:32 49.71361 -1.40554 38255 ft 421 kts
2026-04-26 12:33 49.80172 -1.39806 38251 ft 421 kts
2026-04-26 12:33 49.86015 -1.39294 38256 ft 421 kts
2026-04-26 12:34 49.91838 -1.38778 38251 ft 420 kts
2026-04-26 12:34 49.97689 -1.38257 38251 ft 420 kts
2026-04-26 12:35 50.03510 -1.37416 38259 ft 423 kts
2026-04-26 12:35 50.09343 -1.35966 38258 ft 424 kts
2026-04-26 12:36 50.15151 -1.34418 38258 ft 423 kts
2026-04-26 12:36 50.21012 -1.32884 38263 ft 424 kts
2026-04-26 12:37 50.26830 -1.31396 38268 ft 424 kts
2026-04-26 12:37 50.32639 -1.29926 38268 ft 423 kts
2026-04-26 12:38 50.38461 -1.28461 38270 ft 423 kts
2026-04-26 12:38 50.44250 -1.27005 38270 ft 423 kts
2026-04-26 12:39 50.50090 -1.25854 38280 ft 421 kts 359°
2026-04-26 12:39 50.55900 -1.26102 38287 ft 418 kts 352°
2026-04-26 12:40 50.61678 -1.27022 38286 ft 416 kts 350°
2026-04-26 12:40 50.67448 -1.28026 38297 ft 416 kts 350°
2026-04-26 12:41 50.73164 -1.28979 38287 ft 416 kts 351°
2026-04-26 12:41 50.78936 -1.29906 38293 ft 416 kts 351°
2026-04-26 12:42 50.84683 -1.30812 38302 ft 417 kts 351°
2026-04-26 12:42 50.90449 -1.31716 38295 ft 417 kts 351°
2026-04-26 12:43 50.96190 -1.32615 38299 ft 417 kts 351°
2026-04-26 12:43 51.01978 -1.33523 38294 ft 416 kts 351°
2026-04-26 12:44 51.07718 -1.34427 38284 ft 415 kts 351°
2026-04-26 12:44 51.13475 -1.35333 38291 ft 417 kts 351°
2026-04-26 12:45 51.19234 -1.36244 38285 ft 416 kts 351°
2026-04-26 12:45 51.25017 -1.37160 38287 ft 416 kts 351°
2026-04-26 12:46 51.30793 -1.38077 38285 ft 416 kts 351°
2026-04-26 12:46 51.36535 -1.38992 38283 ft 417 kts 351°
2026-04-26 12:47 51.42307 -1.39915 38279 ft 417 kts 351°
2026-04-26 12:47 51.48055 -1.40836 38287 ft 416 kts 351°
2026-04-26 12:48 51.53820 -1.41764 38292 ft 416 kts 351°
2026-04-26 12:48 51.59647 -1.42705 38292 ft 416 kts 351°
2026-04-26 12:49 51.65389 -1.43633 38293 ft 416 kts 351°
2026-04-26 12:49 51.71162 -1.44569 38291 ft 417 kts 351°
2026-04-26 12:50 51.76949 -1.45509 38286 ft 416 kts 351°
2026-04-26 12:50 51.82709 -1.46447 38287 ft 416 kts 351°
2026-04-26 12:51 51.88461 -1.47387 38288 ft 416 kts 351°
2026-04-26 12:51 51.94229 -1.48331 38286 ft 415 kts 351°
2026-04-26 12:52 51.99984 -1.49275 38287 ft 415 kts 351°
2026-04-26 12:52 52.05780 -1.50228 38289 ft 416 kts 351°
2026-04-26 12:53 52.11534 -1.51177 38284 ft 415 kts 351°
2026-04-26 12:53 52.17266 -1.52124 38281 ft 416 kts 351°
2026-04-26 12:54 52.23019 -1.53077 38284 ft 416 kts 351°
2026-04-26 12:54 52.28798 -1.54037 38282 ft 416 kts 351°
2026-04-26 12:55 52.34515 -1.54989 38286 ft 416 kts 351°
2026-04-26 12:55 52.40287 -1.55953 38286 ft 416 kts 351°
2026-04-26 12:56 52.46050 -1.56917 38292 ft 416 kts 351°
2026-04-26 12:56 52.51794 -1.57881 38286 ft 417 kts 351°
2026-04-26 12:57 52.57609 -1.58859 38287 ft 416 kts 351°
2026-04-26 12:57 52.63385 -1.59834 38286 ft 416 kts 351°
2026-04-26 12:58 52.72029 -1.61295 38287 ft 416 kts 351°
2026-04-26 12:58 52.77818 -1.62276 38286 ft 416 kts 351°
2026-04-26 12:59 52.83555 -1.63253 38286 ft 416 kts 350°
2026-04-26 12:59 52.89339 -1.64241 38285 ft 416 kts 350°
2026-04-26 13:00 52.95098 -1.65226 38282 ft 416 kts 349°
2026-04-26 13:00 53.00845 -1.66216 38279 ft 415 kts 349°
2026-04-26 13:01 53.06502 -1.67826 38280 ft 410 kts 340°
2026-04-26 13:01 53.11918 -1.70774 38283 ft 409 kts 335°
2026-04-26 13:02 53.17252 -1.74152 38275 ft 407 kts 335°
2026-04-26 13:02 53.22561 -1.77550 38269 ft 407 kts 335°
2026-04-26 13:03 53.27848 -1.80898 38260 ft 407 kts 335°
2026-04-26 13:03 53.33183 -1.84254 38255 ft 408 kts 335°
2026-04-26 13:04 53.38459 -1.87567 38257 ft 408 kts 335°
2026-04-26 13:04 53.43780 -1.90913 38251 ft 408 kts 335°
2026-04-26 13:05 53.49140 -1.94290 38262 ft 408 kts 335°
2026-04-26 13:05 53.54456 -1.97649 38263 ft 409 kts 335°
2026-04-26 13:06 53.59744 -2.01000 38267 ft 407 kts 335°
2026-04-26 13:06 53.65038 -2.04363 38266 ft 407 kts 335°
2026-04-26 13:07 53.70340 -2.07740 38264 ft 408 kts 335°
2026-04-26 13:07 53.75658 -2.11148 38269 ft 408 kts 334°
2026-04-26 13:08 53.80942 -2.14708 38261 ft 407 kts 334°
2026-04-26 13:08 53.86205 -2.18335 38260 ft 407 kts 333°
2026-04-26 13:09 53.91460 -2.21958 38259 ft 406 kts 333°
2026-04-26 13:09 53.96722 -2.25582 38259 ft 406 kts 333°
2026-04-26 13:10 54.01942 -2.29181 38259 ft 407 kts 334°
2026-04-26 13:10 54.07192 -2.32808 38253 ft 407 kts 334°
2026-04-26 13:11 54.12254 -2.36310 38260 ft 408 kts 334°
2026-04-26 13:11 54.17520 -2.39965 38265 ft 409 kts 333°
2026-04-26 13:12 54.22803 -2.43638 38258 ft 407 kts 333°
2026-04-26 13:12 54.28016 -2.47268 37847 ft 400 kts 333°
2026-04-26 13:13 54.30601 -2.49070 37361 ft 397 kts 333°
2026-04-26 13:13 54.33141 -2.50847 36782 ft 395 kts 333°
2026-04-26 13:13 54.35689 -2.52633 36286 ft 394 kts 333°
2026-04-26 13:13 54.38244 -2.54429 35717 ft 395 kts 332°
2026-04-26 13:14 54.40772 -2.56209 35128 ft 396 kts 332°
2026-04-26 13:14 54.43342 -2.58019 34643 ft 394 kts 332°
2026-04-26 13:14 54.45855 -2.59790 34147 ft 390 kts 332°
2026-04-26 13:14 54.48380 -2.61570 33673 ft 386 kts 332°
2026-04-26 13:15 54.50851 -2.63313 33217 ft 382 kts 332°
2026-04-26 13:15 54.53225 -2.64991 32768 ft 379 kts 332°
2026-04-26 13:15 54.55703 -2.66747 32300 ft 375 kts 331°
2026-04-26 13:15 54.57306 -2.67883 32001 ft 373 kts 331°
2026-04-26 13:16 54.60473 -2.70133 31403 ft 368 kts 331°
2026-04-26 13:16 54.62832 -2.71811 30956 ft 365 kts 331°
2026-04-26 13:16 54.65154 -2.73466 30511 ft 362 kts 331°
2026-04-26 13:16 54.67475 -2.75122 30072 ft 359 kts 331°
2026-04-26 13:17 54.72054 -2.78393 29198 ft 352 kts 332°
2026-04-26 13:17 54.74288 -2.79991 28775 ft 349 kts 332°
2026-04-26 13:18 54.78714 -2.83164 27933 ft 342 kts 332°
2026-04-26 13:18 54.80912 -2.84744 27508 ft 339 kts 332°
2026-04-26 13:18 54.85248 -2.87866 26680 ft 332 kts 332°
2026-04-26 13:19 54.87392 -2.89416 26293 ft 340 kts 332°
2026-04-26 13:19 54.89578 -2.91002 26091 ft 343 kts 333°
2026-04-26 13:19 54.91791 -2.92606 25390 ft 349 kts 333°
2026-04-26 13:19 54.94022 -2.94224 24894 ft 347 kts 333°
2026-04-26 13:20 54.96220 -2.95812 24420 ft 345 kts 333°
2026-04-26 13:20 54.98450 -2.97426 23965 ft 341 kts 334°
2026-04-26 13:20 55.00635 -2.99010 23531 ft 338 kts 334°
2026-04-26 13:20 55.02777 -3.00565 23051 ft 337 kts 334°
2026-04-26 13:21 55.04930 -3.02131 22589 ft 335 kts 334°
2026-04-26 13:21 55.06381 -3.03188 22242 ft 334 kts 334°
2026-04-26 13:21 55.09203 -3.05246 21650 ft 331 kts 334°
2026-04-26 13:21 55.11142 -3.06662 21224 ft 329 kts 334°
2026-04-26 13:22 55.13245 -3.08198 20781 ft 327 kts 334°
2026-04-26 13:22 55.15332 -3.09723 20354 ft 325 kts 334°
2026-04-26 13:22 55.17435 -3.11263 19873 ft 324 kts 334°
2026-04-26 13:22 55.19508 -3.12785 19409 ft 322 kts 334°
2026-04-26 13:23 55.21558 -3.14290 18959 ft 321 kts 334°
2026-04-26 13:23 55.23606 -3.15797 18503 ft 319 kts 334°
2026-04-26 13:23 55.25634 -3.17290 18029 ft 318 kts 334°
2026-04-26 13:23 55.27666 -3.18764 17618 ft 315 kts 336°
2026-04-26 13:24 55.29771 -3.19916 17156 ft 317 kts 346°
2026-04-26 13:24 55.31961 -3.20245 16714 ft 319 kts 358°
2026-04-26 13:24 55.34154 -3.20016 16299 ft 318 kts
2026-04-26 13:24 55.36369 -3.19617 15838 ft 317 kts
2026-04-26 13:25 55.38551 -3.19197 15410 ft 315 kts
2026-04-26 13:25 55.40711 -3.18807 14985 ft 312 kts
2026-04-26 13:25 55.42851 -3.18446 14560 ft 310 kts
2026-04-26 13:25 55.45000 -3.18187 14136 ft 305 kts 355°
2026-04-26 13:26 55.46995 -3.18976 13996 ft 286 kts 331°
2026-04-26 13:26 55.48655 -3.20721 13735 ft 276 kts 321°
2026-04-26 13:26 55.50164 -3.22843 13303 ft 274 kts 315°
2026-04-26 13:26 55.51543 -3.25165 12925 ft 272 kts 311°
2026-04-26 13:27 55.52822 -3.27551 12557 ft 270 kts 310°
2026-04-26 13:27 55.54095 -3.29985 12162 ft 269 kts 310°
2026-04-26 13:27 55.55354 -3.32401 11809 ft 267 kts 310°
2026-04-26 13:27 55.56619 -3.34827 11433 ft 266 kts 310°
2026-04-26 13:28 55.57861 -3.37205 11092 ft 264 kts 309°
2026-04-26 13:28 55.59110 -3.39584 10733 ft 262 kts 310°
2026-04-26 13:28 55.60348 -3.41933 10378 ft 261 kts 310°
2026-04-26 13:28 55.61577 -3.44258 10031 ft 259 kts 310°
2026-04-26 13:29 55.62823 -3.46614 9669 ft 258 kts 310°
2026-04-26 13:29 55.63645 -3.48170 9427 ft 257 kts 310°
2026-04-26 13:29 55.65249 -3.51221 8944 ft 256 kts 310°
2026-04-26 13:29 55.66468 -3.53552 8572 ft 255 kts 310°
2026-04-26 13:30 55.67660 -3.55837 8239 ft 253 kts 310°
2026-04-26 13:30 55.68847 -3.58116 7866 ft 252 kts 310°
2026-04-26 13:30 55.70016 -3.60362 7637 ft 241 kts 310°
2026-04-26 13:30 55.71130 -3.62488 7396 ft 231 kts 310°
2026-04-26 13:31 55.72203 -3.64535 7105 ft 229 kts 310°
2026-04-26 13:31 55.73270 -3.66577 6797 ft 227 kts 309°
2026-04-26 13:31 55.74355 -3.68658 6453 ft 226 kts 309°
2026-04-26 13:31 55.75404 -3.70673 6123 ft 221 kts 309°
2026-04-26 13:32 55.76423 -3.72635 5798 ft 216 kts 309°
2026-04-26 13:32 55.77420 -3.74564 5484 ft 209 kts 309°
2026-04-26 13:32 55.78517 -3.76233 5152 ft 210 kts 332°
2026-04-26 13:32 55.79926 -3.76770 4828 ft 208 kts 357°
2026-04-26 13:33 55.81332 -3.76477 4560 ft 206 kts 21°
2026-04-26 13:33 55.82457 -3.74938 4277 ft 205 kts 58°
2026-04-26 13:33 55.83026 -3.72639 4024 ft 200 kts 69°
2026-04-26 13:33 55.83619 -3.70443 3970 ft 198 kts 60°
2026-04-26 13:34 55.84341 -3.68324 3971 ft 201 kts 58°
2026-04-26 13:34 55.85087 -3.66212 3824 ft 202 kts 58°
2026-04-26 13:34 55.85823 -3.64073 3493 ft 205 kts 59°
2026-04-26 13:34 55.86318 -3.62627 3282 ft 205 kts 59°
2026-04-26 13:35 55.87296 -3.59785 2919 ft 196 kts 58°
2026-04-26 13:35 55.87976 -3.57804 2677 ft 182 kts 58°
2026-04-26 13:35 55.88623 -3.55917 2430 ft 176 kts 58°
2026-04-26 13:35 55.89251 -3.54087 2162 ft 170 kts 58°
2026-04-26 13:36 55.89861 -3.52302 1939 ft 171 kts 58°
2026-04-26 13:36 55.90466 -3.50534 1719 ft 159 kts 58°
2026-04-26 13:36 55.91009 -3.48946 1506 ft 146 kts 58°
2026-04-26 13:36 55.91515 -3.47463 1314 ft 138 kts 58°
2026-04-26 13:37 55.92014 -3.46006 1129 ft 137 kts 58°
2026-04-26 13:37 55.92509 -3.44550 918 ft 136 kts 58°
2026-04-26 13:37 55.92999 -3.43121 720 ft 135 kts 58°
2026-04-26 13:37 55.93489 -3.41686 548 ft 134 kts 59°
2026-04-26 13:38 55.93963 -3.40278 378 ft 134 kts 57°
2026-04-26 13:38 55.94449 -3.38849 210 ft 135 kts 58°
2026-04-26 13:38 55.94920 -3.37472 142 ft 109 kts 58°
2026-04-26 13:38 55.95199 -3.36653 143 ft 52 kts 58°
2026-04-26 13:39 55.95344 -3.36226 142 ft 38 kts 59°
2026-04-26 13:39 55.95486 -3.35808 142 ft 38 kts 59°
2026-04-26 13:39 55.95553 -3.35531 142 ft 18 kts 117°
2026-04-26 13:39 55.95478 -3.35422 142 ft 9 kts 152°
2026-04-26 13:40 55.95423 -3.35431 142 ft 9 kts 236°
2026-04-26 13:40 55.95384 -3.35542 142 ft 11 kts 238°
2026-04-26 13:40 55.95342 -3.35669 142 ft 7 kts 236°
2026-04-26 13:40 55.95308 -3.35762 142 ft 10 kts 238°
2026-04-26 13:41 55.95276 -3.35863 142 ft 9 kts 238°
2026-04-26 13:41 55.95251 -3.35934 142 ft 0 kts 237°
2026-04-26 13:41 55.95245 -3.35950 142 ft 6 kts 237°
2026-04-26 13:41 55.95203 -3.36077 142 ft 14 kts 239°
2026-04-26 13:42 55.95144 -3.36249 142 ft 18 kts 238°
2026-04-26 13:42 55.95080 -3.36395 142 ft 11 kts 194°
2026-04-26 13:42 55.95006 -3.36422 142 ft 13 kts 234°
2026-04-26 13:42 55.94956 -3.36569 142 ft 13 kts 238°
2026-04-26 13:43 55.94923 -3.36660 142 ft 4 kts 218°
2026-04-26 13:43 55.94897 -3.36655 142 ft 4 kts 147°
2026-04-26 13:43 55.94875 -3.36628 142 ft 3 kts 144°
2026-04-26 13:43 55.94861 -3.36611 142 ft 0 kts 144°